TimeCST,TemperatureF,Dew PointF,Humidity,Sea Level PressureIn,VisibilityMPH,Wind Direction,Wind SpeedMPH,Gust SpeedMPH,PrecipitationIn,Events,Conditions,WindDirDegrees,DateUTC
12:07 AM,32.0,28.4,87,30.37,10.0,Variable,6.9,16.1,N/A,,Mostly Cloudy,0,2013-02-16 06:07:00
12:25 AM,30.2,28.4,93,30.39,8.0,NNE,10.4,-,N/A,,Mostly Cloudy,20,2013-02-16 06:25:00
12:31 AM,30.2,28.4,93,30.39,1.5,NNE,9.2,-,N/A,,Overcast,20,2013-02-16 06:31:00
12:36 AM,30.2,28.4,93,30.39,0.5,NNE,9.2,-,N/A,Fog,Light Freezing Fog,30,2013-02-16 06:36:00
12:53 AM,30.9,30.0,96,30.42,0.5,NNE,5.8,-,N/A,Fog,Light Freezing Fog,30,2013-02-16 06:53:00
1:12 AM,30.2,30.2,100,30.39,0.8,NNE,5.8,-,N/A,,Mist,30,2013-02-16 07:12:00
1:20 AM,30.2,30.2,100,30.39,1.2,NNE,4.6,-,N/A,,Overcast,30,2013-02-16 07:20:00
1:36 AM,30.2,30.2,100,30.38,0.5,Calm,Calm,-,N/A,Fog,Light Freezing Fog,0,2013-02-16 07:36:00
1:53 AM,30.0,27.0,88,30.42,0.2,NW,3.5,-,N/A,Fog,Light Freezing Fog,310,2013-02-16 07:53:00
2:02 AM,30.2,28.4,93,30.38,0.2,Calm,Calm,-,N/A,Fog,Light Freezing Fog,0,2013-02-16 08:02:00
2:38 AM,26.6,26.6,100,30.38,0.2,WNW,4.6,-,N/A,Fog,Light Freezing Fog,300,2013-02-16 08:38:00
2:53 AM,28.0,27.0,96,30.41,1.0,NNW,8.1,-,N/A,,Mist,330,2013-02-16 08:53:00
2:55 AM,28.4,26.6,93,30.38,2.0,NNW,8.1,-,N/A,,Overcast,330,2013-02-16 08:55:00
3:03 AM,30.2,28.4,93,30.38,6.0,NNW,8.1,-,N/A,,Overcast,340,2013-02-16 09:03:00
3:28 AM,28.4,28.4,100,30.37,4.0,NNW,8.1,-,N/A,,Overcast,340,2013-02-16 09:28:00
3:53 AM,30.0,28.9,96,30.40,5.0,North,8.1,-,N/A,,Overcast,350,2013-02-16 09:53:00
3:58 AM,30.2,28.4,93,30.36,1.8,NNW,8.1,-,N/A,,Overcast,340,2013-02-16 09:58:00
4:03 AM,30.2,28.4,93,30.36,0.5,North,9.2,-,N/A,Fog,Light Freezing Fog,350,2013-02-16 10:03:00
4:14 AM,28.4,28.4,100,30.36,0.2,NNW,8.1,-,N/A,Fog,Light Freezing Fog,340,2013-02-16 10:14:00
4:53 AM,28.0,28.0,100,30.40,0.2,NNW,5.8,-,N/A,Fog,Light Freezing Fog,330,2013-02-16 10:53:00
5:20 AM,28.4,28.4,100,30.37,0.8,NNW,9.2,-,N/A,,Mist,340,2013-02-16 11:20:00
5:31 AM,28.4,28.4,100,30.38,1.0,NW,9.2,-,N/A,,Mist,320,2013-02-16 11:31:00
5:42 AM,28.4,28.4,100,30.38,3.0,NW,10.4,-,N/A,,Overcast,320,2013-02-16 11:42:00
5:53 AM,28.0,27.0,96,30.40,4.0,NNW,9.2,-,N/A,,Overcast,330,2013-02-16 11:53:00
5:58 AM,28.4,26.6,93,30.37,1.8,NNW,9.2,-,N/A,,Overcast,330,2013-02-16 11:58:00
6:18 AM,28.4,26.6,93,30.36,3.0,NNW,8.1,-,N/A,,Overcast,340,2013-02-16 12:18:00
6:53 AM,26.1,23.0,88,30.40,7.0,WNW,4.6,-,N/A,,Scattered Clouds,300,2013-02-16 12:53:00
7:53 AM,25.0,23.0,92,30.41,9.0,NNW,4.6,-,N/A,,Clear,330,2013-02-16 13:53:00
8:53 AM,27.0,25.0,92,30.42,10.0,Calm,Calm,-,N/A,,Clear,0,2013-02-16 14:53:00
9:53 AM,30.0,27.0,88,30.39,10.0,South,5.8,-,N/A,,Clear,190,2013-02-16 15:53:00
10:53 AM,34.0,30.9,89,30.37,10.0,SSW,11.5,-,N/A,,Clear,200,2013-02-16 16:53:00
11:53 AM,39.0,30.9,73,30.34,10.0,SSW,12.7,-,N/A,,Clear,200,2013-02-16 17:53:00
12:53 PM,44.1,33.1,65,30.28,10.0,SSW,16.1,24.2,N/A,,Clear,210,2013-02-16 18:53:00
1:53 PM,50.0,30.9,48,30.21,10.0,SW,23.0,29.9,N/A,,Clear,230,2013-02-16 19:53:00
2:53 PM,52.0,30.0,43,30.18,10.0,SW,25.3,32.2,N/A,,Clear,220,2013-02-16 20:53:00
3:53 PM,54.0,30.9,41,30.15,10.0,SW,23.0,-,N/A,,Clear,220,2013-02-16 21:53:00
4:53 PM,54.0,30.0,40,30.13,10.0,SSW,17.3,-,N/A,,Clear,210,2013-02-16 22:53:00
5:53 PM,51.1,30.9,46,30.12,10.0,SSW,12.7,-,N/A,,Clear,210,2013-02-16 23:53:00
6:53 PM,44.1,30.9,60,30.13,10.0,South,10.4,-,N/A,,Clear,190,2013-02-17 00:53:00
7:53 PM,43.0,30.9,62,30.13,10.0,South,11.5,-,N/A,,Clear,190,2013-02-17 01:53:00
8:53 PM,42.1,30.0,62,30.12,10.0,South,12.7,-,N/A,,Clear,190,2013-02-17 02:53:00
9:53 PM,41.0,30.0,65,30.12,10.0,SSW,12.7,-,N/A,,Clear,200,2013-02-17 03:53:00
10:53 PM,39.0,28.9,67,30.11,10.0,South,11.5,-,N/A,,Clear,190,2013-02-17 04:53:00
11:53 PM,39.9,28.9,65,30.08,10.0,South,13.8,-,N/A,,Clear,190,2013-02-17 05:53:00